User: anonymous   Login
Location: Unspecified
(0.0000°N, 0.0000°E)
Time: 05:20:42
(UTC+00:00)
Language:

Tubsat - Orbit

View from above orbital plane
View from above orbital plane
View from above satellite
View from above satellite

Ground track
Ground track

The orbit data is extracted from the following two-line orbital elements,

1 25757U 99029B   18146.75608819 -.00000026  00000-0  50158-5 0  9992
2 25757  98.4087  63.7441 0013978 334.1350  25.9144 14.51383092  6306
Epoch (UTC): 26 May 2018 18:08:46
Eccentricity: 0.0013978
inclination: 98.4087°
perigee height: 711 km
apogee height: 731 km
right ascension of ascending node: 63.7441°
argument of perigee: 334.1350°
revolutions per day: 14.51383092
mean anomaly at epoch: 25.9144°
orbit number at epoch: 630

The dashed part of the orbit path shows where the satellite is in the earth's shadow,  

DLR